Date String (YYYY-MM-DD hh:mm:ss) UTC,Instrument flags,Ambient pressure (hPa),Sample flow (lpm),Bypass flow (lpm),Sample temperature (°C),Ambient temperature (°C),ASC tube jacket temperature (°C),LED temperature (°C),Box temperature (°C),Sample RH (%),Span deviation,Mass concentration (μg/m³),Mass concentration (μg/m³),Mass concentration (μg/m³)
DateTimeUTC,F1_M11,P_M11,Q1_M11,Q2_M11,T1_M11,T2_M11,T3_M11,T4_M11,T5_M11,U1_M11,ZSPAN_M11,X0_M11,X2_M11,X1_M11
2021-09-03 23:00:00,,0826.9,4.99,0.00,29.4,27.7,00.0,38.5,31.2,28.7,0002.2,0013.95,0010.05,0009.69
2021-09-03 23:01:00,,0826.9,5.01,0.00,29.4,28.0,00.0,38.5,31.3,28.7,0002.1,0014.08,0010.17,0009.80
2021-09-03 23:02:00,,0826.8,4.99,0.00,29.5,28.2,00.0,38.5,31.3,29.2,0002.2,0014.33,0010.32,0009.93
2021-09-03 23:03:00,,0826.9,4.98,0.00,29.5,28.4,00.0,38.5,31.4,29.7,0002.1,0014.67,0010.48,0010.06
2021-09-03 23:04:00,,0826.9,5.02,0.00,29.6,28.5,00.0,38.5,31.5,29.9,0002.1,0015.23,0010.65,0010.20
2021-09-03 23:05:00,,0826.9,4.99,0.00,29.6,28.6,00.0,38.6,31.5,29.7,0002.1,0015.77,0010.77,0010.31
2021-09-03 23:06:00,,0826.9,5.01,0.00,29.7,28.8,00.0,38.6,31.6,29.8,0002.1,0015.97,0010.87,0010.41
2021-09-03 23:07:00,,0826.9,5.00,0.00,29.7,28.9,00.0,38.6,31.7,29.9,0002.2,0016.03,0010.97,0010.51
2021-09-03 23:08:00,,0826.9,4.99,0.00,29.8,28.6,00.0,38.6,31.6,30.0,0002.2,0015.89,0011.08,0010.63
2021-09-03 23:09:00,,0827.0,5.00,0.00,29.7,26.8,00.0,38.6,31.1,30.5,0001.9,0015.83,0011.17,0010.71
2021-09-03 23:10:00,,0827.0,5.00,0.00,29.5,25.8,00.0,38.6,30.8,31.2,0001.9,0015.61,0011.27,0010.79
2021-09-03 23:11:00,,0827.0,5.00,0.00,29.4,26.0,00.0,38.6,30.8,32.5,0001.7,0015.65,0011.32,0010.82
2021-09-03 23:12:00,,0827.0,5.01,0.00,29.3,26.5,00.0,38.5,30.9,33.7,0001.6,0016.11,0011.35,0010.83
2021-09-03 23:13:00,,0827.1,5.00,0.00,29.3,26.9,00.0,38.5,31.0,33.5,0001.4,0016.11,0011.37,0010.84
2021-09-03 23:14:00,,0827.0,5.00,0.00,29.4,27.3,00.0,38.5,31.1,33.2,0001.1,0016.06,0011.39,0010.84
2021-09-03 23:15:00,,0826.8,5.01,0.00,29.4,27.7,00.0,38.5,31.2,33.3,0001.0,0015.91,0011.37,0010.82
2021-09-03 23:16:00,,0826.8,5.00,0.00,29.4,27.9,00.0,38.5,31.3,33.3,0000.9,0015.81,0011.39,0010.79
2021-09-03 23:17:00,,0826.8,4.99,0.00,29.5,28.2,00.0,38.5,31.3,32.8,0000.7,0016.73,0011.42,0010.77
2021-09-03 23:18:00,,0826.8,5.01,0.00,29.5,28.3,00.0,38.5,31.4,32.5,0000.6,0017.22,0011.40,0010.73
2021-09-03 23:19:00,,0826.8,4.99,0.00,29.6,28.5,00.0,38.5,31.5,32.1,0000.5,0017.16,0011.38,0010.68
2021-09-03 23:20:00,,0826.8,5.00,0.00,29.6,28.7,00.0,38.6,31.5,31.9,0000.8,0017.25,0011.37,0010.63
2021-09-03 23:21:00,,0826.8,5.01,0.00,29.7,28.8,00.0,38.6,31.6,31.4,0000.5,0017.25,0011.33,0010.58
2021-09-03 23:22:00,,0826.8,5.00,0.00,29.7,28.8,00.0,38.6,31.6,31.5,0000.6,0016.82,0011.32,0010.57
2021-09-03 23:23:00,,0826.8,4.99,0.00,29.7,27.5,00.0,38.6,31.3,31.4,0001.0,0016.68,0011.34,0010.58
2021-09-03 23:24:00,,0826.7,5.00,0.00,29.5,26.0,00.0,38.6,30.9,31.4,0001.2,0017.17,0011.35,0010.57
2021-09-03 23:25:00,,0826.7,5.00,0.00,29.4,25.8,00.0,38.6,30.8,31.6,0001.2,0017.57,0011.35,0010.56
2021-09-03 23:26:00,,0826.7,5.01,0.00,29.3,26.2,00.0,38.6,30.8,32.0,0001.5,0017.78,0011.35,0010.55
2021-09-03 23:27:00,,0826.8,4.99,0.00,29.3,26.7,00.0,38.5,30.9,32.5,0001.5,0017.45,0011.32,0010.55
2021-09-03 23:28:00,,0826.7,5.01,0.00,29.3,27.1,00.0,38.5,31.0,32.5,0001.4,0016.54,0011.27,0010.54
2021-09-03 23:29:00,,0826.8,4.99,0.00,29.4,27.5,00.0,38.5,31.1,32.8,0001.3,0016.85,0011.25,0010.54
2021-09-03 23:30:00,,0826.7,5.01,0.00,29.4,27.8,00.0,38.5,31.2,32.8,0001.2,0016.86,0011.23,0010.53
2021-09-03 23:31:00,,0826.8,5.00,0.00,29.4,28.1,00.0,38.5,31.3,32.7,0000.9,0017.16,0011.25,0010.52
2021-09-03 23:32:00,,0826.7,5.00,0.00,29.5,28.3,00.0,38.5,31.4,33.0,0000.8,0018.47,0011.30,0010.53
2021-09-03 23:33:00,,0826.8,5.01,0.00,29.5,28.5,00.0,38.5,31.4,32.9,0000.6,0019.37,0011.27,0010.50
2021-09-03 23:34:00,,0826.8,4.99,0.00,29.6,28.6,00.0,38.5,31.5,32.8,0000.4,0019.94,0011.24,0010.46
2021-09-03 23:35:00,,0826.8,5.00,0.00,29.6,28.7,00.0,38.6,31.5,32.8,0000.4,0019.99,0011.24,0010.45
2021-09-03 23:36:00,,0826.8,5.01,0.00,29.7,28.9,00.0,38.6,31.6,33.0,0000.9,0019.48,0011.22,0010.44
2021-09-03 23:37:00,,0826.8,4.99,0.00,29.8,28.9,00.0,38.6,31.7,32.8,0001.0,0019.21,0011.17,0010.39
2021-09-03 23:38:00,,0826.8,5.01,0.00,29.7,27.5,00.0,38.6,31.3,33.0,0001.1,0019.77,0011.12,0010.37
2021-09-03 23:39:00,,0826.8,5.00,0.00,29.5,26.0,00.0,38.6,30.8,33.4,0001.1,0020.29,0011.16,0010.35
2021-09-03 23:40:00,,0826.8,5.00,0.00,29.4,25.9,00.0,38.6,30.7,33.6,0001.3,0019.89,0011.15,0010.32
2021-09-03 23:41:00,,0826.8,5.01,0.00,29.3,26.3,00.0,38.6,30.8,33.6,0001.5,0019.88,0011.15,0010.31
2021-09-03 23:42:00,,0826.8,5.00,0.00,29.3,26.8,00.0,38.5,30.9,34.0,0001.8,0019.86,0011.11,0010.30
2021-09-03 23:43:00,,0826.8,5.00,0.00,29.3,27.2,00.0,38.5,31.1,34.1,0002.0,0018.98,0011.06,0010.26
2021-09-03 23:44:00,,0827.2,4.99,0.00,29.4,27.6,00.0,38.5,31.2,34.4,0002.3,0018.34,0011.03,0010.23
2021-09-03 23:45:00,,0826.8,5.01,0.00,29.4,27.9,00.0,38.5,31.3,34.6,0002.2,0017.59,0011.01,0010.20
2021-09-03 23:46:00,,0826.9,5.01,0.00,29.5,28.1,00.0,38.5,31.3,34.7,0002.1,0017.71,0011.00,0010.16
2021-09-03 23:47:00,,0826.9,5.00,0.00,29.5,28.4,00.0,38.5,31.4,34.9,0001.5,0018.19,0010.95,0010.11
2021-09-03 23:48:00,,0826.9,5.01,0.00,29.6,28.5,00.0,38.5,31.5,35.7,0001.2,0018.65,0010.87,0010.03
2021-09-03 23:49:00,,0826.9,5.00,0.00,30.0,28.6,00.0,38.6,31.8,35.5,0001.0,0018.29,0010.76,0009.88
2021-09-03 23:50:00,,0826.9,5.01,0.00,30.3,28.8,00.0,38.6,32.0,34.7,0000.9,0018.07,0010.56,0009.69
2021-09-03 23:51:00,,0827.0,5.00,0.00,30.6,28.8,00.0,38.7,32.0,33.9,0001.0,0018.74,0010.36,0009.49
2021-09-03 23:52:00,,0827.2,5.01,0.00,30.8,28.8,00.0,38.7,32.0,33.5,0001.0,0018.74,0010.18,0009.30
2021-09-03 23:53:00,,0827.3,5.01,0.00,30.8,27.3,00.0,38.8,31.5,33.2,0001.0,0018.42,0010.04,0009.12
2021-09-03 23:54:00,,0827.2,5.00,0.00,30.6,26.0,00.0,38.8,31.1,33.2,0000.8,0018.34,0009.86,0008.96
2021-09-03 23:55:00,,0827.2,4.99,0.00,30.5,25.8,00.0,38.9,31.0,33.3,0000.6,0018.74,0009.76,0008.82
2021-09-03 23:56:00,,0827.2,5.00,0.00,30.4,26.2,00.0,38.9,31.0,33.7,0000.6,0018.85,0009.62,0008.68
2021-09-03 23:57:00,,0827.2,5.00,0.00,30.4,26.7,00.0,38.9,31.1,34.0,0000.6,0018.69,0009.47,0008.54
2021-09-03 23:58:00,,0827.2,4.99,0.00,30.4,27.2,00.0,38.9,31.3,33.9,0001.0,0018.92,0009.37,0008.41
2021-09-03 23:59:00,,0827.4,5.00,0.00,30.4,27.5,00.0,39.0,31.4,33.9,0001.0,0018.84,0009.36,0008.35
